Showing default

COSMOS 2250, 22651

Orbit data source: Space-Track

COSMOS 2250, 22651 is a payload satellite owned by VKS (CIS) in LEO that was launched on Tue, 11 May 1993 UTC via a TSIKLON-3 launch vehicle from the Plesetsk Missile And Space Complex (PKMTR). Payload-class satellites include a variety of spacecraft equipped with specific instruments for various scientific and technological missions. These include communications satellites like Starlink; space stations such as the ISS; scientific satellites like the Hubble; Earth observation satellites from companies like Planet Labs, Umbra, and HawkEye 360; GPS; miniature CubeSats for education and research; and military/defense satellites.

Loading next visibility...
Identifier
22651, 1993-030F
Orbit
LEO
Country
Flag of CISCIS
Related business
Manufacturer
NPO PM
Mission
Defense Communications
Bus & Motor
STRELA-3, Unknown motor
Mass
225 kg wet, 225 kg dry
Launch date (UTC)
1993-05-11 (33 years ago)
Launch vehicle
TSIKLON-3
Launch site
Plesetsk Missile And Space Complex (PKMTR)
Object type
Payload
Rocket body
Debris
Shape & HBR
Cyl, 0.8 m
Radar Cross Section
1.257 m², Large (>1 m²)

Expand to show TLE details & history
Last TLE update: 7 hours ago

TLE from 7 hours ago
0 COSMOS 2250
1 22651U 93030F   26124.74665274  .00000016  00000-0  30607-4 0  9994
2 22651  82.5859 348.9969 0010207  32.0285  37.5749 12.63098567520530
Epoch: 2026-05-04T17:55Z
TLE epoch observation values (Epoch: 2026-05-04T17:55:10.796Z)
Latitude
68.4925°
Longitude
-123.24627°
Altitude
1,415.712 km
Speed
7.162 km/s
True Right ascension
00h 32m 43s
True Declination
68° 23' 06"
Sunlit
Object was in daylight at epoch
Visualization orbit readout
Latitude
Unknown
Longitude
Unknown
Altitude
Unknown
Speed
Unknown
Apparent Right ascension
Unknown
Apparent Declination
Unknown
Sunlit
N/A
Visualization observer readout
Local Sidereal Time
08:59:04
Azimuth
Unknown
Elevation
Unknown
Doppler factor
Unknown
Orbital elements
Apogee altitude
1,415.447 km
Perigee altitude
1,399.554 km
Semi-major axis
7,785.637 km
Eccentricity
0.00102
Inclination
82.5859°
RAAN
348.9969°
Arg. of periapsis
32.0285°
True anomaly
37.6463°
Mean anomaly
37.5749°
Eccentric anomaly
37.61059°
Mean motion
3.15938 °/min
Orbital period
113.95 mins
BSTAR
0.000030607
Loading maneuver chart data...
Computing Atmospheric mass density...
Loading historical data...
Loading historical data...
Loading historical data...
Loading historical data...
Loading historical data...
Loading historical data...
Loading historical data...

Documentation

Showing up to 5 results
|